Location: Dompnac
(44.5644°N, 4.1026°E)
Time: 18:27:00
(UTC+00:00)

USA 234 - Pass Details

Date: 17 January 2021
Orbit: 1100 x 1107 km, 123.0° (Epoch: 01 March)

Event Time Altitude Azimuth Distance (km) Brightness Sun altitude
Exits shadow 20:53:45 25° 295° (WNW) 2,075 5.0 -45.9°
Drops below altitude 10° 20:56:16 10° 304° (NW) 2,965 6.0 -46.3°
Sets 20:58:50 0° 308° (NW) 3,926 6.8 -46.7°
